Weather in Pushkino

Russia / Omsk Oblast     55°05′34″N   73°28′11″E
temp.,
°C
wind,
m/s
gust,
m/s
humid.,
%
clouds,
%
prec.,
mm/h
press.,
hPa
HPBL,
m
20 january, thu
thu2000:00−17sw389718 0.0 1027104
03:00−17sw379819 0.0 102887
06:00−18sw36985 0.0 102979
09:00−18sw359898 0.0 103071
12:00−13sw3594100 0.0 1031126
15:00−11sw369457 0.0 1031160
18:00−16ssw249894 0.0 103239
21:00−18ssw229998 0.0 103330
21 january, fri
fri2100:00−19ssw24995 0.0 103239
03:00−22s2210062 0.0 103217
06:00−24sse2210087 0.0 103218
09:00−20sse2397100 0.0 103156
12:00−15sse2493100 0.0 1031103
15:00−13sse2493100 0.0 1030134
18:00−16se3595100 0.0 103064
21:00−16se2595100 0.0 103181
22 january, sat
sat2200:00−18se2497100 0.0 103247
03:00−20se229993 0.0 103231
06:00−17se2495100 0.0 103262
09:00−18se2496100 0.0 103353
12:00−14sse359071 0.0 1034139
15:00−13se24915 0.0 1033133
18:00−19ese229949 0.0 103511
21:00−20ese2410030 0.0 103641
23 january, sun
sun2300:00−22e2210013 0.0 103616
03:00−22ese2410037 0.0 103637
06:00−22e2210044 0.0 103634
09:00−22e3410063 0.0 103743
12:00−16ese2595100 0.0 1038112
15:00−13ese249220 0.0 1037129
18:00−19e229964 0.0 103819
21:00−19ene2299100 0.0 103925
24 january, mon
mon2400:00−19ene2299100 0.0 103924
03:00−18e2298100 0.0 103928
06:00−19ne2299100 0.0 103924
09:00−19ene2299100 0.0 103924
12:00−14ne1193100 0.0 103966
15:00−11n1291100 0.0 1038125
18:00−15nnw119888 0.0 103810
21:00−20n2110082 0.0 10389